TimeCDT,TemperatureF,Dew PointF,Humidity,Sea Level PressureIn,VisibilityMPH,Wind Direction,Wind SpeedMPH,Gust SpeedMPH,PrecipitationIn,Events,Conditions,WindDirDegrees,DateUTC
12:55 AM,37.4,23.0,56,29.71,10.0,SE,11.5,-,N/A,,Partly Cloudy,140,2012-10-13 05:55:00
1:15 AM,35.6,23.0,60,29.69,10.0,SSE,12.7,19.6,N/A,,Scattered Clouds,150,2012-10-13 06:15:00
1:35 AM,37.4,23.0,56,29.68,10.0,SE,12.7,19.6,N/A,,Mostly Cloudy,140,2012-10-13 06:35:00
1:55 AM,35.6,23.0,60,29.68,10.0,SE,9.2,-,N/A,,Scattered Clouds,130,2012-10-13 06:55:00
2:15 AM,35.6,23.0,60,29.67,10.0,SSE,12.7,-,N/A,,Scattered Clouds,150,2012-10-13 07:15:00
2:35 AM,35.6,23.0,60,29.66,10.0,SSE,10.4,-,N/A,,Scattered Clouds,150,2012-10-13 07:35:00
2:55 AM,35.6,23.0,60,29.66,10.0,SSE,8.1,-,N/A,,Scattered Clouds,160,2012-10-13 07:55:00
3:15 AM,35.6,23.0,60,29.64,10.0,South,6.9,-,N/A,,Mostly Cloudy,170,2012-10-13 08:15:00
3:35 AM,35.6,23.0,60,29.63,10.0,South,8.1,-,N/A,,Overcast,170,2012-10-13 08:35:00
3:55 AM,33.8,23.0,65,29.63,10.0,SSE,8.1,-,N/A,,Overcast,160,2012-10-13 08:55:00
4:15 AM,32.0,23.0,69,29.62,10.0,SSE,5.8,-,N/A,,Mostly Cloudy,150,2012-10-13 09:15:00
4:35 AM,32.0,23.0,69,29.63,10.0,SSE,5.8,-,N/A,,Mostly Cloudy,160,2012-10-13 09:35:00
4:55 AM,32.0,24.8,75,29.61,10.0,SE,6.9,-,N/A,,Mostly Cloudy,140,2012-10-13 09:55:00
5:15 AM,32.0,24.8,75,29.62,10.0,SSE,3.5,-,N/A,,Mostly Cloudy,160,2012-10-13 10:15:00
5:35 AM,32.0,26.6,80,29.62,10.0,ESE,3.5,-,N/A,,Scattered Clouds,110,2012-10-13 10:35:00
5:55 AM,32.0,24.8,75,29.62,10.0,SE,5.8,-,N/A,,Scattered Clouds,130,2012-10-13 10:55:00
6:15 AM,32.0,24.8,75,29.62,10.0,ESE,3.5,-,N/A,,Scattered Clouds,110,2012-10-13 11:15:00
6:35 AM,30.2,26.6,86,29.61,10.0,Calm,Calm,-,N/A,,Scattered Clouds,0,2012-10-13 11:35:00
6:55 AM,32.0,24.8,75,29.62,10.0,SE,6.9,-,N/A,,Scattered Clouds,130,2012-10-13 11:55:00
7:15 AM,28.4,24.8,86,29.64,10.0,ESE,4.6,-,N/A,,Partly Cloudy,120,2012-10-13 12:15:00
7:35 AM,28.4,24.8,86,29.64,10.0,Calm,Calm,-,N/A,,Clear,0,2012-10-13 12:35:00
7:55 AM,28.4,26.6,93,29.64,10.0,Calm,Calm,-,N/A,,Clear,0,2012-10-13 12:55:00
8:15 AM,28.4,26.6,93,29.65,10.0,Calm,Calm,-,N/A,,Clear,0,2012-10-13 13:15:00
8:35 AM,30.2,26.6,86,29.66,10.0,Calm,Calm,-,N/A,,Clear,0,2012-10-13 13:35:00
8:55 AM,32.0,26.6,80,29.67,10.0,Calm,Calm,-,N/A,,Clear,0,2012-10-13 13:55:00
9:15 AM,33.8,28.4,81,29.67,10.0,NW,4.6,-,N/A,,Clear,310,2012-10-13 14:15:00
9:35 AM,37.4,30.2,75,29.68,10.0,NW,6.9,-,N/A,,Clear,320,2012-10-13 14:35:00
9:55 AM,41.0,28.4,61,29.68,10.0,NNW,10.4,-,N/A,,Clear,330,2012-10-13 14:55:00
10:15 AM,41.0,28.4,61,29.68,10.0,NW,9.2,-,N/A,,Clear,320,2012-10-13 15:15:00
10:35 AM,41.0,28.4,61,29.69,10.0,NW,10.4,-,N/A,,Clear,320,2012-10-13 15:35:00
10:55 AM,44.6,28.4,53,29.70,10.0,NNW,9.2,-,N/A,,Clear,340,2012-10-13 15:55:00
11:15 AM,46.4,28.4,50,29.70,10.0,North,10.4,-,N/A,,Clear,350,2012-10-13 16:15:00
11:35 AM,46.4,28.4,50,29.69,10.0,NNW,12.7,-,N/A,,Clear,340,2012-10-13 16:35:00
11:55 AM,46.4,28.4,50,29.70,10.0,North,10.4,-,N/A,,Clear,350,2012-10-13 16:55:00
12:15 PM,46.4,28.4,50,29.71,10.0,NNW,12.7,16.1,N/A,,Clear,340,2012-10-13 17:15:00
12:35 PM,48.2,28.4,46,29.72,10.0,North,13.8,-,N/A,,Clear,350,2012-10-13 17:35:00
12:55 PM,48.2,30.2,50,29.71,10.0,NNW,11.5,-,N/A,,Clear,340,2012-10-13 17:55:00
1:15 PM,48.2,30.2,50,29.71,10.0,North,15.0,-,N/A,,Clear,10,2012-10-13 18:15:00
1:55 PM,50.0,32.0,50,29.72,10.0,North,12.7,20.7,N/A,,Clear,350,2012-10-13 18:55:00
2:15 PM,51.8,32.0,47,29.72,10.0,NNW,13.8,19.6,N/A,,Clear,340,2012-10-13 19:15:00
2:35 PM,53.6,30.2,41,29.72,10.0,North,16.1,-,N/A,,Clear,350,2012-10-13 19:35:00
3:15 PM,55.4,32.0,41,29.73,10.0,North,13.8,17.3,N/A,,Clear,360,2012-10-13 20:15:00
3:35 PM,55.4,32.0,41,29.73,10.0,NNW,13.8,21.9,N/A,,Clear,340,2012-10-13 20:35:00
3:55 PM,55.4,32.0,41,29.74,10.0,NNW,16.1,19.6,N/A,,Clear,340,2012-10-13 20:55:00
4:15 PM,55.4,32.0,41,29.75,10.0,NNW,16.1,21.9,N/A,,Clear,340,2012-10-13 21:15:00
4:55 PM,53.6,32.0,44,29.76,10.0,North,13.8,21.9,N/A,,Clear,350,2012-10-13 21:55:00
5:15 PM,53.6,32.0,44,29.76,10.0,North,16.1,-,N/A,,Clear,10,2012-10-13 22:15:00
5:35 PM,51.8,32.0,47,29.78,10.0,North,13.8,24.2,N/A,,Clear,350,2012-10-13 22:35:00
5:55 PM,50.0,32.0,50,29.79,10.0,North,13.8,-,N/A,,Clear,360,2012-10-13 22:55:00
6:15 PM,50.0,30.2,47,29.80,10.0,North,13.8,-,N/A,,Clear,10,2012-10-13 23:15:00
6:35 PM,48.2,28.4,46,29.81,10.0,North,11.5,-,N/A,,Clear,350,2012-10-13 23:35:00
7:55 PM,44.6,30.2,57,29.84,10.0,NNW,8.1,-,N/A,,Clear,330,2012-10-14 00:55:00
8:15 PM,41.0,32.0,70,29.84,10.0,NNW,8.1,-,N/A,,Partly Cloudy,330,2012-10-14 01:15:00
8:35 PM,42.8,32.0,66,29.85,10.0,NNW,10.4,-,N/A,,Partly Cloudy,330,2012-10-14 01:35:00
9:15 PM,41.0,32.0,70,29.87,10.0,NNW,8.1,-,N/A,,Mostly Cloudy,330,2012-10-14 02:15:00
9:35 PM,41.0,32.0,70,29.88,10.0,NNW,8.1,-,N/A,,Overcast,340,2012-10-14 02:35:00
9:55 PM,41.0,33.8,76,29.89,10.0,NNW,8.1,-,N/A,,Overcast,330,2012-10-14 02:55:00
10:15 PM,41.0,35.6,81,29.90,10.0,NNW,10.4,16.1,N/A,,Overcast,340,2012-10-14 03:15:00
10:55 PM,39.2,37.4,93,29.92,10.0,NNW,9.2,-,N/A,,Mostly Cloudy,330,2012-10-14 03:55:00
11:15 PM,39.2,37.4,93,29.92,10.0,NNW,6.9,-,N/A,,Scattered Clouds,330,2012-10-14 04:15:00
11:35 PM,39.2,37.4,93,29.92,10.0,NNW,8.1,-,N/A,,Partly Cloudy,330,2012-10-14 04:35:00